Preview of NWS' New Version of Forecast
This preview is not operational and should not be used for support decisions.

Regional Weather Roundup (RWR)

Issued by National Weather Service (NWS)

                            
000
ASUS43 KMKX 240120
RWRWI 

WISCONSIN REGIONAL WEATHER ROUNDUP
NATIONAL WEATHER SERVICE MILWAUKEE/SULLIVAN WI
800 PM CDT SAT MAR 23 2019

NOTE: "FAIR" INDICATES FEW OR NO CLOUDS BELOW 12,000 FEET WITH NO
SIGNIFICANT WEATHER AND/OR OBSTRUCTIONS TO VISIBILITY.

WIZ001-002-006>008-014>016-023>028-240200-
NORTHWEST WISCONSIN
  
CITY           SKY/WX    TMP DP  RH WIND       PRES   REMARKS
SUPERIOR ARPT  FAIR      44  26  49 SW8       30.06S                  
ASHLAND        FAIR      42  21  43 S7        30.06S                  
HAYWARD        FAIR      39  26  59 SW6       30.09F WCI  35          
SIREN          FAIR      38  26  62 S3        30.11S                  
CUMBERLAND     FAIR      36  27  69 S7        30.12S WCI  30          
RICE LAKE      FAIR      39  26  59 S5        30.14R                  
CHETEK         FAIR      36  25  64 CALM      30.13S                  
LADYSMITH      FAIR      41  22  46 SW3       30.13F                  
EAU CLAIRE     FAIR      41  25  53 CALM      30.13S                  
MENOMONIE      FAIR      36  26  67 CALM      30.14R                  
NEW RICHMOND   FAIR      41  29  62 S6        30.13S                  
OSCEOLA        FAIR      40  30  68 S3        30.15S                  
$$
 
WIZ003>005-009-010-017-018-240200-
NORTH CENTRAL WISCONSIN
  
CITY           SKY/WX    TMP DP  RH WIND       PRES   REMARKS
MANITOWISH WTR NOT AVBL                                               
ARBOR VITAE    FAIR      42  18  39 SW5       30.08S                  
WOODRUFF       FAIR      42  18  39 SW5       30.08S                  
RHINELANDER    FAIR      42  21  43 SW9       30.10S                  
EAGLE RIVER    FAIR      42  17  35 SW6       30.06F                  
LAND O LAKES   NOT AVBL                                               
PHILLIPS       FAIR      39  21  48 SW3       30.10F                  
TOMAHAWK       FAIR      36  23  59 CALM      30.11F                  
MEDFORD        FAIR      37  22  55 SW5       30.12S WCI  33          
MERRILL        FAIR      35  25  67 CALM      30.12F                  
$$
 
WIZ029-030-035-036-043>047-240200-
CENTRAL WISCONSIN
  
CITY           SKY/WX    TMP DP  RH WIND       PRES   REMARKS
WAUSAU         FAIR      41  24  51 CALM      30.11F                  
MOSINEE        PTCLDY    41  25  52 W3        30.13F                  
MARSHFIELD     FAIR      42  25  50 W3        30.12F                  
STEVENS POINT  FAIR      39  24  54 CALM      30.14R                  
WAUPACA        FAIR      41  28  60 CALM      30.15S                  
WAUTOMA        FAIR      41  30  65 S5        30.16S                  
WISC RAPIDS    FAIR      39  23  52 S3        30.14F                  
CAMP DOUGLAS   FAIR      43  28  56 SW5       30.15F                  
$$
 
WIZ011>013-019>022-031-037>040-048>050-240200-
NORTHEAST WISCONSIN
  
CITY           SKY/WX    TMP DP  RH WIND       PRES   REMARKS
ANTIGO         FAIR      37  24  60 CALM      30.11F                  
SHAWANO        FAIR      40  21  46 CALM      30.12F                  
OCONTO         FAIR      35  26  68 CALM      30.13S                  
STURGEON BAY   FAIR      35  31  85 S9        30.14F WCI  28          
GREEN BAY      FAIR      45  31  58 S6        30.14F                  
MANITOWOC      FAIR      36  31  82 S8        30.17  WCI  30          
APPLETON       CLEAR     39  25  56 SW8       30.13F WCI  34          
CLINTONVILLE   FAIR      44  25  46 SW3       30.13S                  
OSHKOSH        FAIR      42  32  67 S7        30.15F                  
$$
 
WIZ032>034-041-042-053>061-240200-
SOUTHWEST WISCONSIN
  
CITY           SKY/WX    TMP DP  RH WIND       PRES   REMARKS
LA CROSSE      FAIR      46  30  53 CALM      30.15S                  
SPARTA         FAIR      45  28  53 CALM      30.16S                  
VIROQUA        FAIR      45  32  60 S5        30.15F                  
BOSCOBEL       FAIR      47  31  53 S3        30.17S                  
PRAIRIE DU CHI FAIR      49  30  48 E3        30.15F                  
PLATTEVILLE    FAIR      46  35  64 E6        30.17F                  
$$

WIZ056-057-062-063-064-067-068-240200-
SOUTH CENTRAL WISCONSIN
  
CITY           SKY/WX    TMP DP  RH WIND       PRES   REMARKS
REEDSBURG      FAIR      45  30  57 S6        30.16F                  
BARABOO/DELLS  FAIR      41  28  59 S5        30.16S                  
LONE ROCK      FAIR      45  31  58 S5        30.17S                  
MINERAL POINT  FAIR      46  32  57 S5        30.17F                  
MADISON        MOCLDY    47  30  51 S6        30.18S                  
MIDDLETON      FAIR      46  32  58 S6        30.19S                  
WATERTOWN      FAIR      42  30  63 SW3       30.19S                  
MONROE         FAIR      46  30  55 MISG      30.18F                  
JANESVILLE     CLOUDY    46  28  49 S7        30.20S                  
$$
 
WIZ051-052-058>065-066-070>072-240200-
SOUTHEAST WISCONSIN
  
CITY           SKY/WX    TMP DP  RH WIND       PRES   REMARKS
MILWAUKEE      MOCLDY    41  26  55 S7        30.21S                  
WAUKESHA       CLEAR     43  27  52 S5        30.20S                  
MILWAUKEE/TIMM CLEAR     45  27  49 SW7       30.21R                  
RACINE         FAIR      38  25  59 S10       30.23S WCI  31          
KENOSHA        FAIR      39  27  62 S8        30.22S WCI  33          
FOND DU LAC    FAIR      43  31  62 S7        30.16F                  
SHEBOYGAN      FAIR      35  30  82 S8        30.17F WCI  29          
WEST BEND      FAIR      41  28  60 SW5       30.18S                  
JUNEAU         FAIR      41  32  69 S5        30.19S                  
$$

LSZ147-162-240200-
LAKE SUPERIOR
  
STATION/POSITION TIME  TEMP    WIND        PRES    WAVE
                       AIR SEA DIR/SP/G            HT/PER
                 (UTC) (F)     (DEG/KT/KT) (MB)    (FT/S)
DEVILS ISLAND    0100   41     210/ 17/ 19 1016.4F
SAXON HARBOR     0030   41     200/  5/  7 1017.3S
$$
 
LMZ867-665-643>646-240200-
LAKE MICHIGAN
  
STATION/POSITION TIME  TEMP    WIND        PRES    WAVE
                       AIR SEA DIR/SP/G            HT/PER
                 (UTC) (F)     (DEG/KT/KT) (MB)    (FT/S)
NORTHPORT PIER   0030   35     170/  3/  6 1019.3F
KEWAUNEE LAKESHO 0054   37                 1020.2F
SHEBOYGAN LAKESH 0100   36     180/ 15/ 16 1022.6F
PORT WASHINGTON  0030   37     190/  7/ 12 1023.7S
MILWAUKEE LAKESH 0100   39                   N/A
KENOSHA   LAKESH 0100   38     190/  7/ 11 1023.7
$$

TC  - TEMPERATURE IN CELSIUS
VSB - VISIBILITY IN STATUTE MILES
WCI - WIND CHILL INDEX
HX  - HEAT INDEX